World > North America > United States > Georgia
Hourly Weather in Suwanee, GeorgiaSuwanee, Georgia Hourly Weather

Suwanee, GA Hourly Weather

Hourly Weather Suwanee, GeorgiaHourly Weather in Suwanee, GA
Lat: 34.05N, Lon: 84.07W  ICAO: KPDK
Web Search
Suwanee Weather Warning NWS WEATHER ALERT FOR THE SUWANEE, GA AREA - Issued: 534 AM EDT Wed Oct 27 2021 Suwanee Weather Warning  

Did you know? You can add this page to Bookmarks by pressing the Ctrl key & d key at the same time. Mac users press command & d.

Feedback

Suwanee Hourly Weather

36 Hour Weather Scroll   °F Click to change Suwanee hourly weather to Imperial units.Click to change Suwanee hourly weather to Metric units. °C
Currently, Clear, temperature is 69°F21°C, dew point 38°F3°C, humidity 32%. Wind direction is N at 0 mph0 km/h with visibility of 10.00 mi16 km. Barometric pressure is 29.88 in1012 mb.

Oct 27
3:00 PM

Oct 27
4:00 PM

Oct 27
5:00 PM

Oct 27
6:00 PM

Oct 27
7:00 PM

Oct 27
8:00 PM

Oct 27
9:00 PM

Oct 27
10:00 PM

Oct 27
11:00 PM

Oct 28
MIDNIGHT

Oct 28
1:00 AM

Oct 28
2:00 AM

Oct 28
3:00 AM

Oct 28
4:00 AM

Oct 28
5:00 AM

Oct 28
6:00 AM

Oct 28
7:00 AM

Oct 28
8:00 AM

Oct 28
9:00 AM

Oct 28
10:00 AM

Oct 28
11:00 AM

Oct 28
NOON

Oct 28
1:00 PM

Oct 28
2:00 PM

Oct 28
3:00 PM

Oct 28
4:00 PM

Oct 28
5:00 PM

Oct 28
6:00 PM

Oct 28
7:00 PM

Oct 28
8:00 PM

Oct 28
9:00 PM

Oct 28
10:00 PM

Oct 28
11:00 PM

Oct 29
MIDNIGHT

Oct 29
1:00 AM

Oct 29
2:00 AM
Clear Clear Clear Clear Clear Clear Clear Partly Cloudy Partly Cloudy Partly Cloudy Mostly Cloudy Mostly Cloudy Mostly Cloudy Cloudy Cloudy Cloudy Cloudy Cloudy Cloudy Cloudy Cloudy Cloudy Cloudy Cloudy Cloudy Cloudy Cloudy Cloudy Cloudy Cloudy Cloudy Cloudy Cloudy Cloudy Cloudy Cloudy
Clear Clear Clear Clear Clear Clear Clear Partly Cloudy Partly Cloudy Partly Cloudy Mostly Cloudy Mostly Cloudy Mostly Cloudy Cloudy Cloudy Cloudy Cloudy Cloudy Cloudy Cloudy Cloudy Cloudy Cloudy Cloudy Cloudy Cloudy Cloudy Cloudy Cloudy Cloudy Cloudy Cloudy Cloudy Cloudy Cloudy Cloudy
71°F22°C 71°F22°C 72°F22°C 69°F21°C 67°F19°C 64°F18°C 61°F16°C 58°F14°C 55°F13°C 54°F12°C 53°F12°C 52°F11°C 52°F11°C 52°F11°C 52°F11°C 52°F11°C 53°F12°C 53°F12°C 53°F12°C 53°F12°C 53°F12°C 54°F12°C 55°F13°C 56°F13°C 57°F14°C 57°F14°C 58°F14°C 57°F14°C 56°F13°C 55°F13°C 54°F12°C 54°F12°C 53°F12°C 52°F11°C 52°F11°C 51°F11°C
- - - - - - - - - - - - Rain Rain Rain Rain Rain Rain Rain Rain Rain Rain Rain Rain Rain Rain Rain Rain Rain Rain Rain Rain Rain Rain Rain Rain
0% 0% 0% 0% 0% 0% 0% 0% 0% 0% 0% 0% 83% 83% 83% 83% 83% 83% 88% 88% 88% 88% 88% 88% 54% 54% 54% 54% 54% 54% 34% 34% 34% 34% 34% 34%
36°F2°C 37°F3°C 37°F3°C 39°F4°C 40°F4°C 42°F6°C 42°F6°C 43°F6°C 43°F6°C 43°F6°C 42°F6°C 42°F6°C 43°F6°C 44°F7°C 45°F7°C 46°F8°C 46°F8°C 47°F8°C 48°F9°C 49°F9°C 50°F10°C 51°F11°C 52°F11°C 53°F12°C 53°F12°C 54°F12°C 54°F12°C 54°F12°C 55°F13°C 55°F13°C 54°F12°C 54°F12°C 53°F12°C 52°F11°C 50°F10°C 49°F9°C
28% 29% 28% 33% 37% 45% 50% 57% 64% 66% 66% 69% 71% 74% 77% 80% 77% 80% 83% 86% 90% 90% 90% 90% 86% 90% 87% 90% 96% 100% 100% 100% 100% 100% 93% 93%
SW SW S SSE SE ESE ESE E E E E E E E E E E E E E E E ESE ESE SE SE SSE S SW SSW SW SW SSE SSE SW SW
3 mph 3 mph 3 mph 3 mph 1 mph 1 mph 1 mph 2 mph 2 mph 2 mph 4 mph 4 mph 4 mph 6 mph 6 mph 6 mph 10 mph 10 mph 10 mph 10 mph 10 mph 10 mph 6 mph 6 mph 6 mph 8 mph 8 mph 8 mph 6 mph 6 mph 6 mph 2 mph 2 mph 2 mph 3 mph 3 mph
10 mi16 km 10 mi16 km 10 mi16 km 10 mi16 km 10 mi16 km 10 mi16 km 10 mi16 km 10 mi16 km 10 mi16 km 10 mi16 km 10 mi16 km 10 mi16 km 10 mi16 km 10 mi16 km 10 mi16 km 10 mi16 km 10 mi16 km 10 mi16 km 6 mi10 km 5 mi8 km 3 mi5 km 3 mi5 km 5 mi8 km 5 mi8 km 6 mi10 km 6 mi10 km 10 mi16 km 10 mi16 km 10 mi16 km 10 mi16 km 10 mi16 km 10 mi16 km 10 mi16 km 10 mi16 km 10 mi16 km 10 mi16 km
Hour (EDT)
Weather
Clouds
Temperature
Precip. Type
POP
Dewpoint
Humidity
Wind Direction
Wind Speed
Visibility
POP = Probability of Precipitation. ** Indicates missing data/values from model statistics.

24 Hour Forecast

Today - Mostly sunny. Highs around 70. West winds 5 to 10 mph shifting to the south in the afternoon.
Tonight - Partly cloudy in the evening, then mostly cloudy with a 30% chance of showers after midnight. Lows in the lower 50s. Light and variable winds shifting to the east 5 to 15 mph after midnight.

48 Hour Forecast API Feed


Wed, Oct 27
3:00 pm

Wed, Oct 27
4:00 pm

Wed, Oct 27
5:00 pm

Wed, Oct 27
6:00 pm

Wed, Oct 27
7:00 pm

Wed, Oct 27
8:00 pm

Wed, Oct 27
9:00 pm

Wed, Oct 27
10:00 pm

Wed, Oct 27
11:00 pm

Thu, Oct 28
Midnight

Thu, Oct 28
1:00 am

Thu, Oct 28
2:00 am

Thu, Oct 28
3:00 am

Thu, Oct 28
4:00 am

Thu, Oct 28
5:00 am

Thu, Oct 28
6:00 am

Thu, Oct 28
7:00 am

Thu, Oct 28
8:00 am

Thu, Oct 28
9:00 am

Thu, Oct 28
10:00 am

Thu, Oct 28
11:00 am

Thu, Oct 28
Noon

Thu, Oct 28
1:00 pm

Thu, Oct 28
2:00 pm

Thu, Oct 28
3:00 pm

Thu, Oct 28
4:00 pm

Thu, Oct 28
5:00 pm

Thu, Oct 28
6:00 pm

Thu, Oct 28
7:00 pm

Thu, Oct 28
8:00 pm

Thu, Oct 28
9:00 pm

Thu, Oct 28
10:00 pm

Thu, Oct 28
11:00 pm

Fri, Oct 29
Midnight

Fri, Oct 29
1:00 am

Fri, Oct 29
2:00 am

Fri, Oct 29
3:00 am

Fri, Oct 29
4:00 am

Fri, Oct 29
5:00 am

Fri, Oct 29
6:00 am

Fri, Oct 29
7:00 am

Fri, Oct 29
8:00 am

Fri, Oct 29
9:00 am

Fri, Oct 29
10:00 am

Fri, Oct 29
11:00 am

Fri, Oct 29
Noon

Fri, Oct 29
1:00 pm

Fri, Oct 29
2:00 pm
SunnySunnySunnySunnyClearClearClearClearPartly CloudyClearClearPartly CloudyPartly CloudyPartly CloudyClearPartly CloudyOvercastPatchy Light RainModerate RainLight RainModerate RainLight RainLight RainHeavy RainLight RainLight RainLight RainLight DrizzleLight Rain ShowerModerate RainLight Rain ShowerLight Rain ShowerLight Rain ShowerLight Rain ShowerPatchy Rain PossiblePatchy Rain PossibleMistPatchy Rain PossibleLight DrizzlePatchy Rain PossibleLight Rain ShowerLight RainOvercastOvercastLight Rain ShowerPatchy Rain PossibleLight Rain ShowerLight Rain
Sunny Sunny Sunny Sunny Clear Clear Clear Clear Partly cloudy Clear Clear Partly cloudy Partly cloudy Partly cloudy Clear Partly cloudy Overcast Patchy light rain Moderate rain Light rain Moderate rain Light rain Light rain Heavy rain Light rain Light rain Light rain Light drizzle Light rain showers Moderate rain Light rain showers Light rain showers Light rain showers Light rain showers Patchy rain possible Patchy rain possible Mist Patchy rain possible Light drizzle Patchy rain possible Light rain showers Light rain Overcast Overcast Light rain showers Patchy rain possible Light rain showers Light rain
71°F
22°C
71°F
22°C
69°F
21°C
65°F
18°C
59°F
15°C
56°F
14°C
55°F
13°C
55°F
13°C
54°F
12°C
53°F
11°C
52°F
11°C
51°F
11°C
50°F
10°C
50°F
10°C
51°F
11°C
51°F
11°C
52°F
11°C
49°F
9°C
47°F
8°C
48°F
9°C
49°F
9°C
51°F
10°C
50°F
10°C
51°F
11°C
51°F
11°C
52°F
11°C
52°F
11°C
53°F
12°C
53°F
12°C
53°F
12°C
53°F
11°C
53°F
12°C
53°F
12°C
53°F
12°C
54°F
12°C
52°F
11°C
51°F
11°C
52°F
11°C
52°F
11°C
51°F
11°C
51°F
10°C
50°F
10°C
50°F
10°C
50°F
10°C
51°F
10°C
50°F
10°C
50°F
10°C
51°F
10°C
38°F
4°C
38°F
3°C
40°F
4°C
45°F
7°C
44°F
7°C
43°F
6°C
42°F
5°C
41°F
5°C
40°F
5°C
40°F
5°C
40°F
4°C
39°F
4°C
38°F
4°C
38°F
3°C
38°F
3°C
37°F
3°C
37°F
3°C
43°F
6°C
45°F
7°C
46°F
8°C
48°F
9°C
50°F
10°C
49°F
9°C
50°F
10°C
51°F
10°C
51°F
11°C
51°F
11°C
52°F
11°C
53°F
11°C
53°F
11°C
52°F
11°C
53°F
12°C
53°F
12°C
53°F
11°C
53°F
11°C
51°F
10°C
50°F
10°C
50°F
10°C
50°F
10°C
49°F
10°C
48°F
9°C
47°F
9°C
47°F
9°C
48°F
9°C
48°F
9°C
49°F
9°C
49°F
9°C
49°F
9°C
29.83 in
1010 mb
29.83 in
1010 mb
29.8 in
1009 mb
29.83 in
1010 mb
29.83 in
1010 mb
29.85 in
1011 mb
29.85 in
1011 mb
29.85 in
1011 mb
29.85 in
1011 mb
29.85 in
1011 mb
29.85 in
1011 mb
29.85 in
1011 mb
29.83 in
1010 mb
29.83 in
1010 mb
29.8 in
1009 mb
29.8 in
1009 mb
29.77 in
1008 mb
29.85 in
1011 mb
29.77 in
1008 mb
29.77 in
1008 mb
29.71 in
1006 mb
29.68 in
1005 mb
29.65 in
1004 mb
29.62 in
1003 mb
29.62 in
1003 mb
29.59 in
1002 mb
29.56 in
1001 mb
29.56 in
1001 mb
29.56 in
1001 mb
29.53 in
1000 mb
29.53 in
1000 mb
29.53 in
1000 mb
29.53 in
1000 mb
29.5 in
999 mb
29.5 in
999 mb
29.47 in
998 mb
29.47 in
998 mb
29.47 in
998 mb
29.47 in
998 mb
29.47 in
998 mb
29.47 in
998 mb
29.5 in
999 mb
29.5 in
999 mb
29.53 in
1000 mb
29.53 in
1000 mb
29.53 in
1000 mb
29.53 in
1000 mb
29.53 in
1000 mb
30%30%35%48%58%60%60%59%60%62%64%63%64%64%60%58%57%81%93%94%96%97%97%97%98%98%98%98%98%99%99%99%99%98%96%97%95%93%93%93%92%92%92%91%92%94%94%94%
SSESESEESEESEESEESEEEEEEEEEEEEEEEEEEEEENEEENEEENEEESSESWSWSWWSWSWSWWSWWSWSWSWSWSWSWSW
3 mph
4 km/h
3 mph
5 km/h
5 mph
8 km/h
6 mph
9 km/h
6 mph
9 km/h
5 mph
9 km/h
5 mph
8 km/h
6 mph
10 km/h
6 mph
9 km/h
7 mph
12 km/h
6 mph
9 km/h
7 mph
12 km/h
8 mph
13 km/h
9 mph
14 km/h
10 mph
16 km/h
8 mph
13 km/h
9 mph
14 km/h
5 mph
9 km/h
15 mph
24 km/h
15 mph
23 km/h
16 mph
26 km/h
14 mph
22 km/h
14 mph
23 km/h
13 mph
20 km/h
10 mph
17 km/h
12 mph
19 km/h
11 mph
18 km/h
9 mph
14 km/h
7 mph
12 km/h
6 mph
10 km/h
5 mph
8 km/h
3 mph
5 km/h
2 mph
4 km/h
1 mph
2 km/h
3 mph
5 km/h
3 mph
5 km/h
4 mph
7 km/h
4 mph
7 km/h
4 mph
7 km/h
8 mph
13 km/h
9 mph
15 km/h
8 mph
13 km/h
7 mph
12 km/h
8 mph
12 km/h
7 mph
12 km/h
8 mph
12 km/h
8 mph
13 km/h
8 mph
12 km/h
0%0%0%0%0%0%0%0%0%0%0%0%0%0%0%0%0%90%85%89%74%88%88%88%87%87%66%86%83%61%68%72%71%59%63%80%0%74%82%85%84%81%0%0%80%80%80%79%
6 mi
10 km
6 mi
10 km
6 mi
10 km
6 mi
10 km
6 mi
10 km
6 mi
10 km
6 mi
10 km
6 mi
10 km
6 mi
10 km
6 mi
10 km
6 mi
10 km
6 mi
10 km
6 mi
10 km
6 mi
10 km
6 mi
10 km
6 mi
10 km
6 mi
10 km
6 mi
9 km
4 mi
7 km
6 mi
9 km
4 mi
7 km
6 mi
9 km
6 mi
9 km
3 mi
5 km
6 mi
9 km
6 mi
9 km
6 mi
9 km
1 mi
2 km
6 mi
10 km
4 mi
7 km
6 mi
10 km
6 mi
10 km
6 mi
10 km
6 mi
10 km
6 mi
9 km
6 mi
9 km
1 mi
2 km
6 mi
10 km
1 mi
2 km
6 mi
10 km
6 mi
10 km
6 mi
9 km
6 mi
10 km
6 mi
10 km
6 mi
10 km
6 mi
10 km
6 mi
10 km
6 mi
9 km

Day/Time
Weather
Condition
Temperature
Dew Point
Pressure
Humidity
Wind Direction
Wind Speed
Prob Precip %
Visibility
Prob Precip % = Probability of Precipitation.